Tracking 19249 objects as of 16-Oct-2018
HD Live streaming from Space Station
objects crossing your sky now

INSAT 2B

Track INSAT 2B now!
INSAT 2B is classified as:


NORAD ID: 22724
Int'l Code: 1993-048B
Perigee: 35,819.6 km
Apogee: 35,938.1 km
Inclination: 13.4 °
Period: 1,440.4 minutes
Semi major axis: 42249 km
RCS: 19.9526 m2 (large)
Launch date: July 22, 1993
Source: India (IND)
Launch site: FRENCH GUIANA (FRGUI)

Second of Spain's communications satellites; 15 multi-frequency transponders
aabbcc
Your satellite tracking list
Your tracking list is empty




NASA's NSSDC Master Catalog

Two Line Element Set (TLE):
1 22724U 93048B   18287.87048678  .00000115  00000-0  00000+0 0  9991
2 22724  13.3537  24.6715 0014025 164.0184 188.4532  0.99969063 92577
Source of the keplerian elements: AFSPC